Home > Time Zones > World Clock > Weather > India > Theni > Past weeks

Flag for India Weather past 2 weeks in Theni, Tamil Nadu, India

Now
81 °F

Passing clouds.


Feels Like: 84 °F
Forecast: 73 / 93 °F
Wind: 15 mph from Southwest

Location: Coimbatore / Peelamedu

Current Time: Jul 30, 2014 at 11:17:45 AM

Latest Report: Jul 30, 2014 at 10:30 AM


Visibility: 5 mi

Pressure: 29.86 "Hg

Humidity: 70%

Dew point: 70 °F

Location of TheniLocation

Historic Weather in Theni — Graph

°F

Theni temperature yesterday

Maximum temperature yesterday: 88 °F (at 12:30 PM)
Minimum temperature yesterday: 75 °F (at 4:30 AM)
Average temperature yesterday: 81 °F

Past Weeks' High & Low Weather Summary

 TemperatureHumidityPressure
High90 °F (Jul 26, 1:30 PM)100% (Jul 26, 3:30 AM)29.95 "Hg (Jul 26, 3:30 AM)
Low72 °F (Jul 24, 2:30 AM)46% (Jul 19, 11:00 AM)29.74 "Hg (Jul 15, 3:00 PM)
Average80 °F72%29.84 "Hg
* Reported Jul 15 10:00 AM — Jul 30 10:00 AM, Theni, Weather by CustomWeather, © 2014

Note: Actual official high and low records may vary slightly from our data, if they occured in-between our weather recording intervals... More about our weather records

Advertising

Theni weather history for previous 24 hours

 ConditionsComfort  
Time TempWeatherWind HumidityBarometerVisibility
10:00 AM
Jul 30
81 °FPassing clouds.15 mph70%29.86 "Hg5 mi
9:30 AM82 °FPassing clouds.12 mph66%29.86 "Hg5 mi
8:30 AM79 °FPassing clouds.15 mph70%29.86 "Hg5 mi
8:00 AM79 °FScattered clouds.13 mph74%29.86 "Hg5 mi
7:30 AM77 °FScattered clouds.12 mph79%29.86 "Hg4 mi
7:00 AM75 °FScattered clouds.8 mph83%29.83 "Hg3 mi
6:30 AM75 °FPassing clouds.9 mph83%29.83 "Hg3 mi
6:00 AM75 °FPassing clouds.12 mph83%29.83 "Hg3 mi
5:30 AM73 °FPassing clouds.7 mph89%29.83 "Hg3 mi
4:30 AM73 °FPassing clouds.8 mph94%29.80 "Hg3 mi
2:30 AM75 °FPassing clouds.10 mph89%29.80 "Hg3 mi
12:30 AM75 °FPassing clouds.8 mph89%29.86 "Hg3 mi
12:00 AM75 °FPassing clouds.9 mph89%29.86 "Hg3 mi
11:30 PM
Jul 29
77 °FPassing clouds.9 mph89%29.86 "Hg3 mi
11:00 PM77 °FPassing clouds.10 mph79%29.89 "Hg3 mi
10:30 PM77 °FPassing clouds.12 mph79%29.89 "Hg3 mi
10:00 PM77 °FPassing clouds.14 mph79%29.86 "Hg3 mi
9:30 PM77 °FPassing clouds.13 mph79%29.86 "Hg3 mi
9:00 PM77 °FPassing clouds.12 mph79%29.86 "Hg3 mi
8:30 PM79 °FPassing clouds.14 mph74%29.83 "Hg3 mi
8:00 PM79 °FPartly cloudy.13 mph79%29.83 "Hg3 mi
7:30 PM79 °FPartly cloudy.14 mph79%29.83 "Hg3 mi
7:00 PM79 °FBroken clouds.14 mph79%29.80 "Hg3 mi
6:30 PM81 °FBroken clouds.14 mph74%29.80 "Hg3 mi
6:00 PM82 °FBroken clouds.14 mph66%29.80 "Hg3 mi
5:30 PM82 °FBroken clouds.16 mph62%29.77 "Hg3 mi
5:00 PM82 °FBroken clouds.17 mph62%29.77 "Hg3 mi
4:30 PM82 °FBroken clouds.15 mph62%29.77 "Hg3 mi
4:00 PM84 °FBroken clouds.14 mph55%29.77 "Hg3 mi
3:30 PM86 °FBroken clouds.14 mph49%29.77 "Hg3 mi
3:00 PM86 °FBroken clouds.14 mph52%29.77 "Hg3 mi
2:30 PM88 °FBroken clouds.14 mph49%29.77 "Hg3 mi
2:00 PM86 °FBroken clouds.15 mph52%29.80 "Hg3 mi
1:30 PM86 °FBroken clouds.14 mph52%29.80 "Hg3 mi
1:00 PM86 °FPartly sunny.14 mph52%29.83 "Hg3 mi
12:30 PM88 °FPartly sunny.15 mph46%29.83 "Hg3 mi
12:00 PM86 °FPartly sunny.12 mph52%29.83 "Hg3 mi
11:30 AM86 °FPartly sunny.12 mph52%29.86 "Hg3 mi
11:00 AM84 °FPartly sunny.15 mph51%29.86 "Hg3 mi
Weather by CustomWeather, © 2014

See weather overviewHow to use our weather pages